Orbital Elements at Epoch 2459000.5 (2020-May-31.0) TDB
Reference: JPL 19 (heliocentric ecliptic J2000)
Element | Value | Uncertainty (1-sigma) | Units |
e | .1326352877402711 | 4.3455e-08 | |
a | 2.266641426994328 | 6.8141e-09 | au |
q | 1.966004789120917 | 9.9939e-08 | au |
i | .6292318629026723 | 4.8224e-06 | deg |
node | 176.6024742628811 | 0.00032765 | deg |
peri | 188.886075305819 | 0.00032798 | deg |
M | 63.1978900612318 | 1.3681e-05 | deg |
tp | 2458781.687192608132 (2019-Oct-25.18719261) | 4.7264e-05 | TDB |
period | 1246.443680077774 3.41 | 5.6207e-06 1.539e-08 | d yr |
n | .2888217139321828 | 1.3024e-09 | deg/d |
Q | 2.56727806486774 | 7.7179e-09 | au |
|
| | Orbit Determination Parameters
Additional Information
|